AFL783 ULLI-URMM

Flight info

Callsign AFL783
Flight time N/A
Altitude 41000
Route SUGIN1B SUGIN DCT NIRGI DCT OLEGI T834 BEKIP DCT BULAT L4 UPERI T833 TOGMO M56 ABAGI/K0870F350 W21 WGD/K0902F410 A927 SL DCT SUBED DCT LIDUS/K0902F400 G242 ZG/K0911F410 DCT ITAKA/K0906F400 DCT AMKOL DCT GOTIK DCT MEMZA A962 OKARU OKARU5B
Aircraft A359/H-SDE2E3GHIJ3J4J5LM1ORWXY/LB1D1

Departure

Time 2026-05-06 18:18
Airport Pulkovo Airport (ULLI)

Arrival

Time N/A
Airport Mineralnye Vody Airport (URMM)
Time Latitude Longitude Altitude Speed Heading
2026-05-06 17:18 59.79725 30.26625 88 ft 0 kts 105°
2026-05-06 18:00 59.79727 30.26613 92 ft 4 kts 98°
2026-05-06 18:00 59.79731 30.26596 92 ft 4 kts 44°
2026-05-06 18:00 59.79721 30.26585 92 ft 4 kts 42°
2026-05-06 18:01 59.79713 30.26573 89 ft 2 kts 94°
2026-05-06 18:01 59.79715 30.26528 91 ft 4 kts 94°
2026-05-06 18:01 59.79717 30.26475 91 ft 4 kts 94°
2026-05-06 18:01 59.79719 30.26428 90 ft 1 kts 95°
2026-05-06 18:02 59.79719 30.26427 90 ft 6 kts 95°
2026-05-06 18:07 59.79719 30.26429 90 ft 1 kts 86°
2026-05-06 18:07 59.79729 30.26440 91 ft 2 kts 30°
2026-05-06 18:08 59.79750 30.26450 89 ft 0 kts 15°
2026-05-06 18:10 59.79760 30.26455 90 ft 5 kts 14°
2026-05-06 18:11 59.79816 30.26481 90 ft 12 kts 13°
2026-05-06 18:11 59.79920 30.26528 90 ft 18 kts 14°
2026-05-06 18:11 59.80063 30.26609 85 ft 25 kts 18°
2026-05-06 18:11 59.80231 30.26714 85 ft 14 kts 17°
2026-05-06 18:12 59.80264 30.26734 83 ft 9 kts 17°
2026-05-06 18:12 59.80334 30.26775 85 ft 13 kts 15°
2026-05-06 18:12 59.80384 30.26867 85 ft 9 kts 76°
2026-05-06 18:12 59.80374 30.27023 86 ft 15 kts 105°
2026-05-06 18:13 59.80338 30.27269 84 ft 21 kts 106°
2026-05-06 18:13 59.80291 30.27584 84 ft 26 kts 106°
2026-05-06 18:13 59.80236 30.27956 84 ft 30 kts 106°
2026-05-06 18:13 59.80176 30.28361 81 ft 31 kts 107°
2026-05-06 18:14 59.80116 30.28759 86 ft 29 kts 107°
2026-05-06 18:14 59.80060 30.29137 83 ft 29 kts 106°
2026-05-06 18:14 59.80003 30.29517 84 ft 29 kts 107°
2026-05-06 18:14 59.79975 30.29701 82 ft 0 kts 107°
2026-05-06 18:15 59.79975 30.29705 82 ft 2 kts 107°
2026-05-06 18:15 59.79960 30.29803 84 ft 13 kts 107°
2026-05-06 18:15 59.79949 30.30014 84 ft 18 kts 71°
2026-05-06 18:15 59.79999 30.30148 85 ft 0 kts 48°
2026-05-06 18:16 59.80005 30.30161 83 ft 5 kts 48°
2026-05-06 18:16 59.80052 30.30250 85 ft 13 kts 33°
2026-05-06 18:16 59.80119 30.30221 84 ft 11 kts 319°
2026-05-06 18:16 59.80142 30.30127 84 ft 0 kts 289°
2026-05-06 18:17 59.80191 30.29821 84 ft 63 kts 288°
2026-05-06 18:17 59.80391 30.28471 85 ft 138 kts 287°
2026-05-06 18:18 59.80666 30.26406 667 ft 152 kts 288°
2026-05-06 18:18 59.80928 30.24388 1514 ft 151 kts 285°
2026-05-06 18:18 59.81251 30.22272 2001 ft 173 kts 288°
2026-05-06 18:18 59.81648 30.19784 2327 ft 204 kts 288°
2026-05-06 18:19 59.82082 30.16973 2876 ft 219 kts 287°
2026-05-06 18:19 59.82524 30.14013 3331 ft 225 kts 288°
2026-05-06 18:19 59.82965 30.11056 3466 ft 222 kts 287°
2026-05-06 18:19 59.83402 30.08125 3475 ft 221 kts 287°
2026-05-06 18:20 59.83831 30.05190 3504 ft 221 kts 287°
2026-05-06 18:20 59.84071 30.02210 3500 ft 223 kts 271°
2026-05-06 18:20 59.83705 29.99201 3502 ft 228 kts 246°
2026-05-06 18:20 59.82662 29.96806 3528 ft 236 kts 218°
2026-05-06 18:21 59.81134 29.95473 3907 ft 244 kts 200°
2026-05-06 18:21 59.79497 29.94583 4606 ft 244 kts 199°
2026-05-06 18:21 59.77852 29.93694 5313 ft 246 kts 199°
2026-05-06 18:21 59.76167 29.92943 6166 ft 252 kts 191°
2026-05-06 18:22 59.74415 29.93316 6731 ft 260 kts 164°
2026-05-06 18:22 59.72888 29.95392 6977 ft 283 kts 133°
2026-05-06 18:22 59.71946 29.98952 7018 ft 301 kts 108°
2026-05-06 18:22 59.71389 30.02980 6996 ft 304 kts 104°
2026-05-06 18:23 59.70860 30.07038 7037 ft 304 kts 105°
2026-05-06 18:23 59.70301 30.11111 7437 ft 308 kts 105°
2026-05-06 18:23 59.69761 30.15247 8343 ft 312 kts 101°
2026-05-06 18:23 59.69544 30.19542 9409 ft 317 kts 92°
2026-05-06 18:24 59.69478 30.23982 10302 ft 329 kts 92°
2026-05-06 18:24 59.69417 30.28613 10802 ft 354 kts 93°
2026-05-06 18:24 59.69299 30.33623 11381 ft 373 kts 98°
2026-05-06 18:24 59.68871 30.38730 12266 ft 379 kts 104°
2026-05-06 18:25 59.68320 30.43892 13144 ft 387 kts 105°
2026-05-06 18:25 59.67750 30.49138 14011 ft 394 kts 105°
2026-05-06 18:25 59.67172 30.54488 14849 ft 400 kts 105°
2026-05-06 18:25 59.66586 30.59914 15689 ft 407 kts 105°
2026-05-06 18:26 59.65991 30.65423 16483 ft 413 kts 105°
2026-05-06 18:26 59.65387 30.71033 17275 ft 419 kts 105°
2026-05-06 18:26 59.64880 30.76752 18114 ft 426 kts 102°
2026-05-06 18:26 59.64428 30.82584 18904 ft 433 kts 102°
2026-05-06 18:27 59.63962 30.88483 19733 ft 437 kts 102°
2026-05-06 18:27 59.63478 30.94457 20535 ft 442 kts 103°
2026-05-06 18:27 59.62979 31.00488 21326 ft 447 kts 103°
2026-05-06 18:27 59.62468 31.06582 22067 ft 452 kts 103°
2026-05-06 18:28 59.61947 31.12745 22809 ft 457 kts 103°
2026-05-06 18:28 59.61418 31.18960 23529 ft 462 kts 103°
2026-05-06 18:28 59.60879 31.25248 24182 ft 468 kts 103°
2026-05-06 18:28 59.60329 31.31615 24854 ft 473 kts 103°
2026-05-06 18:29 59.59770 31.38043 25506 ft 478 kts 103°
2026-05-06 18:29 59.59202 31.44545 26135 ft 482 kts 103°
2026-05-06 18:29 59.58627 31.51080 26778 ft 486 kts 103°
2026-05-06 18:29 59.58041 31.57699 27349 ft 492 kts 103°
2026-05-06 18:30 59.57448 31.64361 27948 ft 496 kts 103°
2026-05-06 18:30 59.56844 31.71104 28490 ft 501 kts 103°
2026-05-06 18:30 59.56234 31.77880 29051 ft 505 kts 103°
2026-05-06 18:30 59.55613 31.84723 29587 ft 509 kts 103°
2026-05-06 18:31 59.54992 31.91539 30068 ft 513 kts 103°
2026-05-06 18:31 59.54349 31.98486 30576 ft 517 kts 104°
2026-05-06 18:31 59.53460 32.05334 31076 ft 515 kts 113°
2026-05-06 18:31 59.51984 32.11716 31586 ft 509 kts 126°
2026-05-06 18:32 59.49956 32.17337 32065 ft 501 kts 137°
2026-05-06 18:32 59.47616 32.22407 32503 ft 501 kts 141°
2026-05-06 18:32 59.45155 32.27273 32928 ft 502 kts 142°
2026-05-06 18:32 59.42638 32.32056 33349 ft 504 kts 143°
2026-05-06 18:33 59.40102 32.36828 33782 ft 506 kts 143°
2026-05-06 18:33 59.37555 32.41640 34162 ft 510 kts 143°
2026-05-06 18:33 59.35009 32.46486 34513 ft 513 kts 142°
2026-05-06 18:33 59.32451 32.51390 34917 ft 514 kts 142°
2026-05-06 18:34 59.29907 32.56291 35487 ft 511 kts 142°
2026-05-06 18:34 59.27385 32.61156 36007 ft 509 kts 142°
2026-05-06 18:34 59.24863 32.66012 36471 ft 507 kts 142°
2026-05-06 18:34 59.22351 32.70834 36890 ft 507 kts 142°
2026-05-06 18:35 59.19834 32.75651 37293 ft 506 kts 142°
2026-05-06 18:35 59.17356 32.80380 37736 ft 504 kts 142°
2026-05-06 18:35 59.14846 32.85158 38114 ft 504 kts 141°
2026-05-06 18:35 59.12338 32.89920 38465 ft 504 kts 141°
2026-05-06 18:36 59.09826 32.94681 38842 ft 503 kts 141°
2026-05-06 18:36 59.07325 32.99412 39209 ft 502 kts 141°
2026-05-06 18:36 59.04821 33.04135 39526 ft 502 kts 141°
2026-05-06 18:36 59.02315 33.08855 39865 ft 501 kts 141°
2026-05-06 18:37 58.99811 33.13561 40213 ft 500 kts 141°
2026-05-06 18:37 58.98163 33.16654 40423 ft 499 kts 141°
2026-05-06 18:37 58.94815 33.22920 40827 ft 498 kts 141°
2026-05-06 18:37 58.92313 33.27590 40987 ft 501 kts 141°
2026-05-06 18:38 58.87246 33.37010 41002 ft 507 kts 141°
2026-05-06 18:38 58.82192 33.46375 41000 ft 505 kts 140°
2026-05-06 18:39 58.77124 33.55738 41000 ft 504 kts 140°
2026-05-06 18:40 58.69503 33.69734 40999 ft 505 kts 140°
2026-05-06 18:40 58.64410 33.79032 41003 ft 505 kts 140°
2026-05-06 18:41 58.59313 33.88301 40999 ft 505 kts 141°
2026-05-06 18:41 58.54210 33.97541 41002 ft 505 kts 141°
2026-05-06 18:42 58.49102 34.06750 41000 ft 505 kts 141°
2026-05-06 18:42 58.43986 34.15936 41000 ft 505 kts 141°
2026-05-06 18:43 58.38865 34.25093 40999 ft 504 kts 141°
2026-05-06 18:43 58.33772 34.34160 41001 ft 504 kts 141°
2026-05-06 18:44 58.28639 34.43261 41000 ft 504 kts 141°
2026-05-06 18:44 58.23506 34.52327 40999 ft 504 kts 141°
2026-05-06 18:45 58.18092 34.60694 41001 ft 499 kts 149°
2026-05-06 18:45 58.12361 34.68070 41002 ft 498 kts 150°
2026-05-06 18:46 58.06582 34.75282 40999 ft 498 kts 151°
2026-05-06 18:46 58.00789 34.82491 41002 ft 498 kts 151°
2026-05-06 18:47 57.95008 34.89685 40999 ft 498 kts 151°
2026-05-06 18:47 57.89221 34.96877 41002 ft 498 kts 151°
2026-05-06 18:48 57.83469 35.03997 41002 ft 498 kts 151°
2026-05-06 18:48 57.77676 35.11138 40978 ft 497 kts 151°
2026-05-06 18:49 57.72849 35.17069 40965 ft 494 kts 151°
2026-05-06 18:49 57.67140 35.24057 40965 ft 493 kts 151°
2026-05-06 18:50 57.61395 35.31059 40966 ft 493 kts 151°
2026-05-06 18:50 57.55644 35.38043 40966 ft 493 kts 151°
2026-05-06 18:51 57.49886 35.45008 40966 ft 493 kts 151°
2026-05-06 18:51 57.44128 35.51949 40966 ft 493 kts 151°
2026-05-06 18:52 57.38364 35.58870 40966 ft 493 kts 151°
2026-05-06 18:52 57.32605 35.65759 40966 ft 493 kts 152°
2026-05-06 18:53 57.26855 35.72693 40966 ft 494 kts 150°
2026-05-06 18:53 57.21225 35.79985 40968 ft 495 kts 149°
2026-05-06 18:54 57.15618 35.87325 40966 ft 494 kts 149°
2026-05-06 18:54 57.10022 35.94548 40966 ft 494 kts 149°
2026-05-06 18:55 57.04376 36.01756 40966 ft 494 kts 149°
2026-05-06 18:55 56.98731 36.08925 40966 ft 494 kts 149°
2026-05-06 18:56 56.93071 36.16087 40965 ft 494 kts 150°
2026-05-06 18:56 56.87412 36.23224 40966 ft 494 kts 150°
2026-05-06 18:57 56.81748 36.30341 40966 ft 494 kts 150°
2026-05-06 18:57 56.76277 36.37984 40966 ft 497 kts 144°
2026-05-06 18:58 56.71009 36.46176 40965 ft 498 kts 143°
2026-05-06 18:58 56.65723 36.54287 40932 ft 497 kts 144°
2026-05-06 18:59 56.60373 36.62251 40911 ft 497 kts 144°
2026-05-06 18:59 56.54735 36.69373 40911 ft 493 kts 151°
2026-05-06 19:00 56.48928 36.76009 40910 ft 493 kts 152°
2026-05-06 19:00 56.43105 36.82562 40911 ft 493 kts 152°
2026-05-06 19:01 56.37278 36.89117 40910 ft 493 kts 152°
2026-05-06 19:01 56.31453 36.95667 40911 ft 493 kts 152°
2026-05-06 19:02 56.25633 37.02195 40912 ft 493 kts 152°
2026-05-06 19:02 56.19798 37.08716 40911 ft 494 kts 152°
2026-05-06 19:03 56.14189 37.14960 40911 ft 494 kts 152°
2026-05-06 19:03 56.08362 37.21424 40912 ft 493 kts 152°
2026-05-06 19:04 56.02511 37.27892 40911 ft 493 kts 152°
2026-05-06 19:04 55.96669 37.34326 40911 ft 493 kts 152°
2026-05-06 19:05 55.90876 37.40683 40910 ft 493 kts 152°
2026-05-06 19:05 55.85028 37.47078 40911 ft 493 kts 152°
2026-05-06 19:06 55.79180 37.53450 40912 ft 493 kts 152°
2026-05-06 19:06 55.73326 37.59806 40912 ft 493 kts 152°
2026-05-06 19:07 55.67477 37.66135 40910 ft 493 kts 152°
2026-05-06 19:07 55.61597 37.72340 40911 ft 491 kts 155°
2026-05-06 19:08 55.55564 37.77978 40911 ft 490 kts 156°
2026-05-06 19:08 55.49500 37.83518 40913 ft 490 kts 155°
2026-05-06 19:09 55.43471 37.89111 40911 ft 489 kts 155°
2026-05-06 19:09 55.37461 37.94754 40911 ft 490 kts 154°
2026-05-06 19:10 55.31655 38.01077 40911 ft 492 kts 149°
2026-05-06 19:10 55.25955 38.07722 40912 ft 492 kts 149°
2026-05-06 19:11 55.20223 38.14256 40911 ft 491 kts 150°
2026-05-06 19:11 55.14458 38.20677 40911 ft 491 kts 150°
2026-05-06 19:12 55.08681 38.27051 40911 ft 491 kts 150°
2026-05-06 19:12 55.02935 38.33371 40912 ft 491 kts 150°
2026-05-06 19:13 54.97149 38.39719 40911 ft 491 kts 150°
2026-05-06 19:13 54.91353 38.46058 40912 ft 491 kts 150°
2026-05-06 19:14 54.85562 38.52371 40911 ft 491 kts 150°
2026-05-06 19:14 54.79773 38.58659 40911 ft 491 kts 151°
2026-05-06 19:15 54.73979 38.64931 40910 ft 491 kts 151°
2026-05-06 19:15 54.68184 38.71183 40912 ft 491 kts 151°
2026-05-06 19:16 54.62379 38.77425 40911 ft 491 kts 151°
2026-05-06 19:16 54.56567 38.83652 40914 ft 491 kts 151°
2026-05-06 19:17 54.50800 38.89811 40910 ft 491 kts 151°
2026-05-06 19:17 54.44994 38.96001 40911 ft 491 kts 151°
2026-05-06 19:18 54.39743 39.03587 40911 ft 498 kts 133°
2026-05-06 19:18 54.36083 39.13701 40915 ft 502 kts 116°
2026-05-06 19:19 54.33391 39.24675 40909 ft 497 kts 113°
2026-05-06 19:19 54.30836 39.35637 40910 ft 495 kts 114°
2026-05-06 19:20 54.28227 39.46533 40911 ft 495 kts 114°
2026-05-06 19:20 54.25577 39.57382 40912 ft 495 kts 114°
2026-05-06 19:21 54.22905 39.68234 40912 ft 495 kts 114°
2026-05-06 19:21 54.20228 39.79063 40911 ft 495 kts 114°
2026-05-06 19:22 54.17544 39.89873 40910 ft 494 kts 115°
2026-05-06 19:22 54.14855 40.00656 40913 ft 494 kts 115°
2026-05-06 19:23 54.12193 40.11388 40907 ft 495 kts 112°
2026-05-06 19:23 54.10087 40.22559 40912 ft 496 kts 108°
2026-05-06 19:24 54.08131 40.33810 40911 ft 496 kts 108°
2026-05-06 19:24 54.06183 40.45083 40911 ft 496 kts 108°
2026-05-06 19:25 54.04217 40.56325 40912 ft 496 kts 108°
2026-05-06 19:25 54.02233 40.67565 40912 ft 496 kts 108°
2026-05-06 19:26 54.00235 40.78791 40911 ft 496 kts 108°
2026-05-06 19:26 53.98230 40.89998 40911 ft 496 kts 108°
2026-05-06 19:27 53.96212 41.01204 40911 ft 496 kts 108°
2026-05-06 19:27 53.94253 41.12418 40912 ft 496 kts 107°
2026-05-06 19:28 53.92442 41.23647 40912 ft 496 kts 107°
2026-05-06 19:28 53.90613 41.34945 40912 ft 496 kts 106°
2026-05-06 19:29 53.88756 41.46187 40911 ft 495 kts 107°
2026-05-06 19:29 53.86881 41.57401 40912 ft 494 kts 107°
2026-05-06 19:30 53.84994 41.68592 40912 ft 494 kts 107°
2026-05-06 19:30 53.83098 41.79776 40912 ft 494 kts 107°
2026-05-06 19:31 53.81185 41.90937 40912 ft 494 kts 107°
2026-05-06 19:31 53.78288 42.07681 40911 ft 494 kts 107°
2026-05-06 19:32 53.76348 42.18818 40912 ft 494 kts 107°
2026-05-06 19:32 53.74396 42.29956 40910 ft 494 kts 107°
2026-05-06 19:33 53.72434 42.41089 40912 ft 494 kts 107°
2026-05-06 19:33 53.70447 42.52192 40909 ft 494 kts 109°
2026-05-06 19:34 53.67437 42.62441 40911 ft 491 kts 126°
2026-05-06 19:34 53.62674 42.70566 40910 ft 488 kts 146°
2026-05-06 19:35 53.56692 42.75882 40910 ft 486 kts 157°
2026-05-06 19:35 53.50459 42.80311 40911 ft 487 kts 158°
2026-05-06 19:36 53.45260 42.83937 40911 ft 487 kts 158°
2026-05-06 19:36 53.39010 42.88357 40911 ft 487 kts 158°
2026-05-06 19:37 53.32783 42.92803 40911 ft 487 kts 158°
2026-05-06 19:37 53.26562 42.97243 40911 ft 487 kts 158°
2026-05-06 19:38 53.20331 43.01673 40911 ft 487 kts 158°
2026-05-06 19:38 53.14093 43.06092 40887 ft 486 kts 158°
2026-05-06 19:39 53.07904 43.10582 40884 ft 485 kts 156°
2026-05-06 19:39 53.01811 43.15160 40886 ft 484 kts 156°
2026-05-06 19:40 52.95656 43.19764 40886 ft 484 kts 156°
2026-05-06 19:40 52.89505 43.24318 40886 ft 484 kts 156°
2026-05-06 19:41 52.83353 43.28845 40882 ft 484 kts 156°
2026-05-06 19:41 52.77196 43.33360 40885 ft 484 kts 157°
2026-05-06 19:42 52.71029 43.37870 40886 ft 484 kts 157°
2026-05-06 19:42 52.64867 43.42363 40881 ft 484 kts 157°
2026-05-06 19:43 52.58697 43.46849 40887 ft 484 kts 157°
2026-05-06 19:43 52.52530 43.51318 40882 ft 484 kts 157°
2026-05-06 19:44 52.46367 43.55771 40881 ft 484 kts 157°
2026-05-06 19:44 52.40195 43.60216 40886 ft 484 kts 157°
2026-05-06 19:45 52.34028 43.64645 40883 ft 484 kts 157°
2026-05-06 19:45 52.27852 43.69066 40885 ft 484 kts 157°
2026-05-06 19:46 52.21677 43.73473 40883 ft 484 kts 157°
2026-05-06 19:46 52.15507 43.77863 40884 ft 484 kts 157°
2026-05-06 19:47 52.09329 43.82245 40888 ft 484 kts 157°
2026-05-06 19:47 52.03153 43.86612 40881 ft 484 kts 157°
2026-05-06 19:48 51.97012 43.90943 40882 ft 484 kts 157°
2026-05-06 19:48 51.90828 43.95289 40884 ft 484 kts 157°
2026-05-06 19:49 51.84665 43.99606 40882 ft 482 kts 156°
2026-05-06 19:49 51.78510 44.03905 40886 ft 481 kts 156°
2026-05-06 19:50 51.72355 44.08195 40885 ft 483 kts 156°
2026-05-06 19:50 51.66170 44.12493 40886 ft 483 kts 156°
2026-05-06 19:51 51.59986 44.16777 40882 ft 483 kts 156°
2026-05-06 19:51 51.53840 44.21021 40885 ft 483 kts 156°
2026-05-06 19:52 51.47654 44.25279 40887 ft 483 kts 156°
2026-05-06 19:52 51.41477 44.29519 40881 ft 483 kts 156°